Gig Harbor, WA

6:23 AM PST on February 23, 2017 (GMT -0800)
Tacoma Narrows

Weather History for KTIW - December, 2011

Change the Weather History Date:

Saturday, December 3, 2011

  Actual Average Record
Temperature  
Mean Temperature 38 °F -  
Max Temperature 42 °F 45 °F 57 °F (2007)
Min Temperature 33 °F 38 °F 32 °F (1996)
Degree Days  
Heating Degree Days 28    
Moisture  
Dew Point 36 °F    
Average Humidity 97    
Maximum Humidity 100    
Minimum Humidity 85    
Precipitation  
Precipitation 0.01 in - - ()
Sea Level Pressure  
Sea Level Pressure 30.51 in    
Wind  
Wind Speed 1 mph (South)    
Max Wind Speed 6 mph    
Max Gust Speed -    
Visibility 3 miles    
Events Fog    
Averages and records for this station are not official NWS values.
T = Trace of Precipitation, MM = Missing Value Source: NWS Daily Summary

Daily Weather History Graph

Daily Weather History Graph

Search for Another Location

Airport or City:

Trip Planner

Search our weather history database for the weather conditions in past years. The results will help you decide how hot, cold, wet, or windy it might be!

Date:

Astronomy

Dec. 03, 2011 Rise Set
Actual Time 7:38 AM PST 4:21 PM PST
Civil Twilight 7:03 AM PST 4:56 PM PST
Nautical Twilight 6:25 AM PST 5:34 PM PST
Astronomical Twilight 5:48 AM PST 6:11 PM PST
Moon 12:48 PM PST (12/3) 12:49 AM PST (12/3)
Length of Visible Light 9h 52m
Length of Day
8h 42m
Waxing Gibbous, 63% of the Moon is Illuminated
Dec 3
Waxing Gibbous
Dec 10
Full
Dec 17
Last Quarter
Dec 24
New
Dec 31
First Quarter

Hourly Weather History & Observations

Time (PST) Temp. Windchill Dew Point Humidity Pressure Visibility Wind Dir Wind Speed Gust Speed Precip Events Conditions
12:53 AM 33.1 °F - 33.1 °F 100% 30.53 in 0.2 mi Calm Calm - N/A Fog Fog
1:04 AM 33.8 °F - 33.8 °F 100% 30.51 in 0.2 mi Calm Calm - N/A Fog Fog
1:20 AM 35.6 °F - 35.6 °F 100% 30.51 in 0.5 mi Calm Calm - N/A Fog Fog
1:30 AM 33.8 °F 30.8 °F 33.8 °F 100% 30.51 in 0.2 mi SSW 3.5 mph - N/A Fog Fog
1:42 AM 35.6 °F - 35.6 °F 100% 30.51 in 0.2 mi Calm Calm - N/A Fog Fog
1:53 AM 35.1 °F - 34.0 °F 96% 30.53 in 0.2 mi Calm Calm - N/A Fog Fog
2:53 AM 36.0 °F - 36.0 °F 100% 30.53 in 0.2 mi Calm Calm - N/A Fog Fog
3:53 AM 35.1 °F 32.2 °F 35.1 °F 100% 30.53 in 0.2 mi NNW 3.5 mph - N/A Fog Fog
4:33 AM 35.6 °F - 35.6 °F 100% 30.51 in 0.5 mi Calm Calm - N/A Fog Fog
4:44 AM 35.6 °F - 35.6 °F 100% 30.51 in 1.8 mi Calm Calm - N/A   Overcast
4:53 AM 36.0 °F - 36.0 °F 100% 30.51 in 0.8 mi Calm Calm - N/A   Mist
5:53 AM 35.1 °F - 35.1 °F 100% 30.51 in 0.5 mi Calm Calm - N/A Fog Fog
6:53 AM 36.0 °F - 36.0 °F 100% 30.52 in 1.0 mi Calm Calm - N/A   Overcast
6:59 AM 35.6 °F - 35.6 °F 100% 30.51 in 3.0 mi Calm Calm - N/A   Overcast
7:25 AM 35.6 °F - 35.6 °F 100% 30.51 in 2.5 mi Calm Calm - N/A   Overcast
7:33 AM 35.6 °F - 35.6 °F 100% 30.51 in 3.0 mi Calm Calm - N/A   Overcast
7:47 AM 37.4 °F 34.9 °F 35.6 °F 93% 30.51 in 1.5 mi South 3.5 mph - N/A   Overcast
7:53 AM 36.0 °F 32.1 °F 36.0 °F 100% 30.52 in 0.5 mi SSE 4.6 mph - N/A Fog Fog
7:56 AM 35.6 °F 30.7 °F 35.6 °F 100% 30.50 in 0.5 mi South 5.8 mph - N/A Fog Fog
8:08 AM 35.6 °F 31.7 °F 35.6 °F 100% 30.51 in 0.5 mi South 4.6 mph - N/A Fog Fog
8:53 AM 37.0 °F - 37.0 °F 100% 30.53 in 0.5 mi Calm Calm - N/A Fog Fog
9:53 AM 37.0 °F 34.5 °F 37.0 °F 100% 30.53 in 0.8 mi South 3.5 mph - N/A   Overcast
10:00 AM 37.4 °F 33.8 °F 37.4 °F 100% 30.52 in 1.2 mi South 4.6 mph - N/A   Overcast
10:07 AM 37.4 °F 34.9 °F 37.4 °F 100% 30.52 in 0.5 mi South 3.5 mph - N/A Fog Fog
10:53 AM 37.9 °F - 37.0 °F 97% 30.53 in 0.8 mi Calm Calm - N/A   Overcast
11:53 AM 37.9 °F - 37.9 °F 100% 30.53 in 0.8 mi Calm Calm - N/A   Overcast
12:53 PM 39.0 °F 35.7 °F 37.9 °F 96% 30.52 in 2.0 mi South 4.6 mph - N/A   Overcast
1:33 PM 39.2 °F - 37.4 °F 93% 30.49 in 10.0 mi Calm Calm - N/A   Mostly Cloudy
1:53 PM 39.9 °F - 37.0 °F 89% 30.51 in 8.0 mi Calm Calm - N/A   Mostly Cloudy
2:53 PM 42.1 °F - 37.9 °F 85% 30.51 in 10.0 mi Calm Calm - N/A   Scattered Clouds
3:53 PM 39.9 °F 37.8 °F 37.0 °F 89% 30.49 in 10.0 mi WSW 3.5 mph - N/A   Scattered Clouds
4:53 PM 36.0 °F - 34.0 °F 93% 30.50 in 10.0 mi Calm Calm - N/A   Partly Cloudy
5:53 PM 37.0 °F - 36.0 °F 96% 30.51 in 9.0 mi Calm Calm - 0.01 in   Clear
6:11 PM 35.6 °F - 33.8 °F 93% 30.48 in 3.0 mi Calm Calm - N/A   Clear
6:22 PM 35.6 °F - 33.8 °F 93% 30.49 in 3.0 mi Calm Calm - N/A   Partly Cloudy
6:53 PM 35.1 °F - 34.0 °F 96% 30.51 in 3.0 mi Calm Calm - N/A   Partly Cloudy
6:55 PM 35.6 °F - 33.8 °F 93% 30.49 in 3.0 mi Calm Calm - N/A   Scattered Clouds
7:53 PM 37.0 °F - 36.0 °F 96% 30.51 in 7.0 mi Calm Calm - N/A   Overcast
8:37 PM 39.2 °F - 37.4 °F 93% 30.50 in 8.0 mi Calm Calm - N/A   Overcast
8:53 PM 39.0 °F - 37.9 °F 96% 30.51 in 7.0 mi Calm Calm - N/A   Overcast
9:53 PM 39.0 °F - 37.9 °F 96% 30.52 in 6.0 mi Calm Calm - N/A   Overcast
10:05 PM 39.2 °F - 37.4 °F 93% 30.50 in 1.8 mi Calm Calm - N/A   Overcast
10:12 PM 39.2 °F - 37.4 °F 93% 30.50 in 3.0 mi Calm Calm - N/A   Overcast
10:38 PM 39.2 °F - 37.4 °F 93% 30.51 in 2.5 mi Calm Calm - N/A   Overcast
10:46 PM 39.2 °F 37.0 °F 37.4 °F 93% 30.51 in 1.5 mi South 3.5 mph - N/A   Overcast
10:53 PM 37.9 °F 35.5 °F 37.9 °F 100% 30.53 in 1.5 mi SSE 3.5 mph - N/A   Overcast
11:08 PM 37.4 °F 34.9 °F 37.4 °F 100% 30.52 in 2.5 mi South 3.5 mph - N/A   Overcast
11:22 PM 37.4 °F 33.8 °F 37.4 °F 100% 30.52 in 1.5 mi South 4.6 mph - N/A   Overcast
11:36 PM 37.4 °F 34.9 °F 37.4 °F 100% 30.52 in 2.5 mi South 3.5 mph - N/A   Overcast
11:44 PM 37.4 °F 33.8 °F 37.4 °F 100% 30.52 in 3.0 mi South 4.6 mph - N/A   Overcast
11:53 PM 37.9 °F 34.4 °F 37.9 °F 100% 30.52 in 4.0 mi South 4.6 mph - N/A   Overcast